Weather Roundup
Issued by NWS

Home | Current Version | Previous Version | Graphics & Text | Print | Product List | Glossary Off
Versions: 1 2 3 4 5 6 7 8 9 10 11 12 13 14 15 16 17 18 19 20 21 22 23 24 25 26 27 28 29 30 31 32 33 34 35 36 37 38 39 40 41 42 43 44 45 46 47 48 49 50

000
NZUS93 KARX 260710
HRRWXR

CURRENT HOURLY OBSERVATIONS ACROSS
MUCH OF THE UPPER MISSISSIPPI VALLEY
NATIONAL WEATHER SERVICE LA CROSSE WI
200 AM CDT FRI AUG 26 2016


...SOUTHEAST MINNESOTA...


CITY           SKY/WX    TMP DP  RH WIND       PRES   REMARKS
ROCHESTER      FAIR      57  55  93 W6        30.15F
ROCHESTER/MAYO FAIR      60  54  79 W5        30.15S
WINONA         FAIR      59  55  88 CALM      30.14R
AUSTIN         FAIR      57  55  94 CALM      30.15F
ALBERT LEA     FAIR      55  55 100 CALM      30.16S
DODGE CENTER   FAIR      54  52  94 W5        30.15F
PRESTON        FAIR      56  55  93 NW6       30.16S
OWATONNA       FAIR      55  52  88 CALM      30.16S
FARIBAULT      FAIR      55  54  94 W3        30.16S
$$

...ELSEWHERE IN MINNESOTA...


CITY           SKY/WX    TMP DP  RH WIND       PRES   REMARKS
MINNEAPOLIS    FAIR      60  54  80 CALM      30.14R
INTNL FALLS    FAIR      44  43  96 CALM      30.08R
DULUTH         MOCLDY    58  54  86 W7        30.09R
RED WING       FAIR      55  54  94 CALM      30.12F
REDWOOD FALLS  FAIR      55  51  86 W5        30.16F
MANKATO        FAIR      57  52  82 W3        30.17R
WORTHINGTON    FAIR      53  52  96 CALM      30.19F
FAIRMONT       FAIR      55  53  93 CALM      30.18R
$$

...SOUTHWEST WISCONSIN...


CITY           SKY/WX    TMP DP  RH WIND       PRES   REMARKS
LA CROSSE      FAIR      62  59  90 CALM      30.12S
PRAIRIE DU CHI FAIR      60  58  93 CALM      30.12S
BOSCOBEL       FOG       59  59 100 CALM      30.13R VSB 1/4
LONE ROCK      FOG       59  58  96 CALM      30.13R VSB 3/4
PLATTEVILLE    FAIR      61  61 100 CALM      30.14R
FORT MC COY    FAIR      54  53  99 CALM      30.13S
CAMP DOUGLAS   FAIR      54  53  98 W5        30.12R
MAUSTON-NEW LI FAIR      60  57  89 CALM      30.12R
VIROQUA        FAIR      58  57  96 CALM      30.14S
WIS DELLS      FAIR      59  56  91 CALM      30.12S
$$

...ELSEWHERE IN WISCONSIN...


CITY           SKY/WX    TMP DP  RH WIND       PRES   REMARKS
MILWAUKEE      FAIR      71  61  70 W7        30.09S
MADISON        LGT RAIN  62  60  93 CALM      30.11R
GREEN BAY      FAIR      59  58  96 W7        30.07S
EAU CLAIRE     FAIR      55  53  93 CALM      30.11S
BLACK RVR FLS  FAIR      52  52 100 CALM      30.13R
MEDFORD        FAIR      54  54 100 W5        30.11S
WAUSAU         FAIR      58  54  86 NW8       30.09R
WIS RAPIDS     FAIR      58  56  93 W5        30.13R
MARSHFIELD     FAIR      56  52  86 W5        30.11R
RICE LAKE      FAIR      55  52  91 CALM      30.13F
$$

...NORTHEAST IOWA...


CITY           SKY/WX    TMP DP  RH WIND       PRES   REMARKS
WATERLOO       FAIR      60  58  92 CALM      30.13R
DUBUQUE        FAIR      61  59  93 N8        30.13S
DECORAH        NOT AVBL
MASON CITY     FAIR      57  56  96 N3        30.17S
CHARLES CITY   NOT AVBL
OELWEIN        NOT AVBL
$$

...ELSEWHERE IN IOWA...


CITY           SKY/WX    TMP DP  RH WIND       PRES   REMARKS
DES MOINES     FAIR      65  62  90 N3        30.13S
IOWA CITY      FAIR      63  62  97 W3        30.13S
FORT DODGE     FAIR      61  55  82 CALM      30.17R
MARSHALLTOWN   FAIR      60  60 100 W3        30.13S
CEDAR RAPIDS   FAIR      60  60 100 NW6       30.13R FOG
$$

...NORTHERN ILLINOIS...


CITY           SKY/WX    TMP DP  RH WIND       PRES   REMARKS
CHICAGO-OHARE  MOCLDY    68  63  84 NW7       30.10S
CHICAGO-MIDWAY CLOUDY    70  63  78 NW3       30.10R
MOLINE         FAIR      64  62  93 CALM      30.11S FOG
ROCKFORD       FAIR      66  62  87 N3        30.12F
PEORIA         FAIR      70  68  93 CALM      30.11R
$$

NOTE: "FAIR" INDICATES FEW OR NO CLOUDS BELOW 12,000 FEET WITH NO
SIGNIFICANT WEATHER AND/OR OBSTRUCTIONS TO VISIBILITY. WIND
SPEEDS ARE IN MILES-PER-HOUR.




USA.gov is the U.S. government's official web portal to all federal, state and local government web resources and services.